Leadville, CO

6:03 PM MDT on August 16, 2017 (GMT -0600)
Lake County

Weather History for KLXV - July, 2014

Change the Weather History Date:

Monday, July 14, 2014

  Actual Average Record
Temperature  
Mean Temperature 60 °F -  
Max Temperature 74 °F 71 °F 80 °F (2005)
Min Temperature 46 °F 38 °F 30 °F (1987)
Degree Days  
Heating Degree Days 5 11  
Month to date heating degree days 110 160  
Since 1 June heating degree days 564 640  
Since 1 July heating degree days 110 160  
Cooling Degree Days 0 0  
Month to date cooling degree days 0 0  
Year to date cooling degree days 0 0  
Since 1 June cooling degree days 0 0  
Growing Degree Days 10 (Base 50)    
Moisture  
Dew Point 42 °F    
Average Humidity 59    
Maximum Humidity 100    
Minimum Humidity 17    
Precipitation  
Precipitation 0.01 in 0.06 in 0.38 in (2017)
Month to date precipitation 0.84 0.69  
Year to date precipitation 9.46 5.76  
Sea Level Pressure  
Sea Level Pressure 30.17 in    
Wind  
Wind Speed 6 mph (NNE)    
Max Wind Speed 24 mph    
Max Gust Speed 28 mph    
Visibility 10 miles    
Events      
T = Trace of Precipitation, MM = Missing Value Source: NWS Daily Summary

Daily Weather History Graph

Daily Weather History Graph

Search for Another Location

Airport or City:

Trip Planner

Search our weather history database for the weather conditions in past years. The results will help you decide how hot, cold, wet, or windy it might be!

Date:

Astronomy

Jul. 14, 2014 Rise Set
Actual Time 5:50 AM MDT 8:31 PM MDT
Civil Twilight 5:19 AM MDT 9:02 PM MDT
Nautical Twilight 4:40 AM MDT 9:41 PM MDT
Astronomical Twilight 3:55 AM MDT 10:25 PM MDT
Moon 10:04 PM MDT (7/14) 8:35 AM MDT (7/14)
Length of Visible Light 15h 43m
Length of Day
14h 40m
Waning Gibbous, 92% of the Moon is Illuminated
Jul 14
Waning Gibbous
Jul 18
Last Quarter
Jul 26
New
Aug 3
First Quarter
Aug 10
Full

Hourly Weather History & Observations

Time (MDT) Temp. Windchill Dew Point Humidity Pressure Visibility Wind Dir Wind Speed Gust Speed Precip Events Conditions
12:53 AM 48.0 °F - 46.0 °F 93% 30.08 in 10.0 mi ENE 4.6 mph - N/A   Clear
1:29 AM 48.0 °F - 46.0 °F 93% 30.58 in 10.0 mi NE 5.8 mph - N/A   Partly Cloudy
1:53 AM 48.0 °F - 46.0 °F 93% 30.05 in 10.0 mi ENE 4.6 mph - N/A   Scattered Clouds
2:53 AM 46.9 °F - 46.0 °F 97% 30.04 in 10.0 mi NE 8.1 mph - N/A   Scattered Clouds
3:53 AM 46.9 °F - 44.1 °F 90% 30.07 in 10.0 mi NE 6.9 mph - N/A   Clear
4:15 AM 46.0 °F 43.1 °F 44.1 °F 93% 30.59 in 10.0 mi NE 5.8 mph - N/A   Mostly Cloudy
4:45 AM 48.9 °F - 46.0 °F 90% 30.60 in 10.0 mi East 3.5 mph - N/A   Overcast
4:53 AM 48.9 °F - 46.0 °F 90% 30.06 in 10.0 mi Calm Calm - N/A   Overcast
5:53 AM 48.9 °F - 46.9 °F 93% 30.09 in 10.0 mi Calm Calm - N/A   Overcast
6:53 AM 50.0 °F - 46.9 °F 89% 30.12 in 10.0 mi Calm Calm - N/A   Overcast
7:53 AM 51.1 °F - 48.0 °F 89% 30.12 in 10.0 mi WNW 3.5 mph - N/A   Overcast
8:53 AM 53.1 °F - 48.0 °F 83% 30.12 in 10.0 mi West 3.5 mph - N/A   Scattered Clouds
9:53 AM 60.1 °F - 46.9 °F 62% 30.10 in 10.0 mi Calm Calm - N/A   Clear
10:53 AM 66.0 °F - 35.1 °F 32% 30.06 in 10.0 mi North 10.4 mph 16.1 mph N/A   Clear
11:53 AM 66.0 °F - 32.0 °F 28% 30.06 in 10.0 mi Calm Calm - N/A   Mostly Cloudy
12:53 PM 69.8 °F - 32.0 °F 25% 30.56 in 10.0 mi West 6.9 mph - N/A   Scattered Clouds
2:53 PM 73.9 °F - 26.1 °F 17% 29.98 in 10.0 mi NW 11.5 mph 17.3 mph N/A   Scattered Clouds
3:53 PM 71.6 °F - 30.2 °F 22% 30.53 in 10.0 mi West 9.2 mph - N/A   Mostly Cloudy
4:53 PM 70.0 °F - 34.0 °F 27% 29.97 in 10.0 mi Variable 5.8 mph - 0.01 in   Mostly Cloudy
5:53 PM 68.0 °F - 33.1 °F 27% 29.98 in 10.0 mi North 9.2 mph - N/A   Mostly Cloudy
6:53 PM 63.0 °F - 45.0 °F 52% 30.00 in 10.0 mi South 18.4 mph 27.6 mph N/A   Mostly Cloudy
7:00 PM 62.1 °F - 46.0 °F 56% 30.52 in 10.0 mi South 18.4 mph - N/A   Mostly Cloudy
7:53 PM 57.9 °F - 45.0 °F 62% 30.05 in 10.0 mi South 16.1 mph - N/A   Clear
8:53 PM 55.9 °F - 46.0 °F 69% 30.07 in 10.0 mi South 10.4 mph - N/A   Clear
9:53 PM 54.0 °F - 46.0 °F 75% 30.06 in 10.0 mi SSW 5.8 mph - N/A   Clear
10:53 PM 52.0 °F - 46.9 °F 83% 30.04 in 10.0 mi Calm Calm - N/A   Clear
11:53 PM 48.9 °F - 46.0 °F 90% 30.06 in 10.0 mi Calm Calm - N/A   Clear